User: anonymous   Login
Location: Unspecified
(0.0000°N, 0.0000°E)
Time: 04:13:51
(UTC+00:00)
Language:

COSMOS-2414 - Orbit

View from above orbital plane
View from above orbital plane
View from above satellite
View from above satellite

Ground track
Ground track

The orbit data is extracted from the following two-line orbital elements,

1 28521U 05002A   18344.66925133 -.00000005  00000-0 -16775-4 0  9997
2 28521  82.9479 319.4863 0038847 235.1269 124.6239 13.87606104703374
Epoch (UTC): 10 December 2018 16:03:43
Eccentricity: 0.0038847
inclination: 82.9479°
perigee height: 908 km
apogee height: 965 km
right ascension of ascending node: 319.4863°
argument of perigee: 235.1269°
revolutions per day: 13.87606104
mean anomaly at epoch: 124.6239°
orbit number at epoch: 70337

The dashed part of the orbit path shows where the satellite is in the earth's shadow,  

DLR